Theta_e
344 348 352 349 350 353 351 351 352 352 353 352 352 353 353 352 352 353 353 352 351 350 350 349 350 350 350 350 349 348 349 348 347 346 346 346 346 346 345 345 346 348 348 348 349 350 351 351 351 348 348 353 352 350 351 351 349 349 348 348 351 354 356 355 355 354 353 353 353 353 353 353 353 353 354 354 354 353 351 351 350 349 351 350 352
348 350 349 354 347 350 352 352 352 352 352 353 352 353 353 353 353 352 353 353 352 351 349 349 350 350 350 350 349 349 348 348 347 346 345 345 346 346 345 345 345 346 347 347 348 349 350 349 351 349 348 353 351 349 348 350 349 349 349 348 352 355 354 354 353 352 351 351 350 352 353 353 353 353 354 354 354 353 351 351 350 350 349 353 353
349 350 349 352 346 348 352 352 352 353 352 353 353 353 354 353 352 352 352 352 352 351 350 349 350 350 349 349 349 348 347 346 346 346 345 345 345 346 346 345 345 345 345 347 347 347 348 349 349 349 347 351 349 347 349 350 349 348 349 348 354 353 353 353 352 351 351 350 350 350 348 350 353 353 354 354 354 353 351 350 349 349 350 353 352
344 348 348 350 344 346 351 352 354 354 353 353 354 355 354 353 353 352 352 352 352 352 350 350 350 350 349 349 348 347 346 345 346 346 346 345 345 345 345 345 345 345 345 346 347 347 346 346 347 347 351 350 348 348 348 349 349 348 349 349 353 353 353 352 352 351 350 350 349 348 349 350 351 353 354 354 354 353 349 348 348 351 352 352 351
343 344 346 352 350 346 349 351 353 354 354 354 354 354 353 353 353 353 352 351 351 351 351 350 350 349 348 347 347 347 346 345 346 346 346 346 345 345 345 345 345 345 345 346 345 345 346 347 345 345 354 349 348 348 346 346 349 347 348 349 352 353 353 352 352 351 350 349 348 346 343 347 350 351 352 354 353 352 349 349 350 352 352 352 352
343 343 344 347 351 351 346 350 352 353 354 354 354 354 354 353 353 353 353 352 351 351 351 350 349 348 348 347 346 346 346 345 346 346 346 346 346 345 345 345 345 345 345 345 346 345 345 345 344 345 353 349 348 347 346 344 343 346 345 345 353 353 352 352 351 350 349 347 346 347 344 345 347 351 351 351 353 351 351 351 351 351 351 351 352
342 343 344 345 350 350 343 349 352 353 353 354 355 354 354 353 353 353 353 352 351 350 349 348 347 347 347 347 346 346 346 346 345 346 346 347 346 345 345 345 345 345 344 344 345 346 346 346 344 345 352 349 348 347 347 345 343 344 345 345 353 352 352 351 350 349 347 347 348 347 342 343 345 349 351 350 353 353 352 352 352 352 352 351 351
341 344 344 344 348 347 343 347 351 352 353 354 354 354 354 354 354 354 353 353 351 350 349 348 347 347 347 346 346 346 346 345 345 346 346 347 347 346 345 345 345 346 346 345 344 344 346 347 346 346 350 350 349 348 347 345 346 346 346 347 353 352 351 350 349 348 346 343 341 344 341 343 345 347 349 351 351 353 352 352 352 351 350 350 346
338 340 341 343 347 346 344 347 349 351 352 353 354 353 354 353 353 353 353 353 352 350 349 348 347 347 347 346 346 346 345 345 345 345 346 346 347 347 347 346 346 347 348 348 346 345 346 347 347 347 348 350 349 348 347 344 346 347 345 345 352 351 350 349 347 344 347 340 339 341 343 341 344 345 347 350 350 351 351 350 350 349 348 347 345
329 338 340 341 345 340 342 345 348 350 351 352 352 353 353 353 353 352 351 351 352 351 349 348 347 346 346 346 345 346 345 345 344 344 346 348 348 349 346 347 349 348 349 349 348 347 346 347 347 348 348 351 349 348 348 347 347 347 346 346 351 349 349 348 346 344 340 339 340 342 343 341 343 345 347 348 347 349 349 344 344 343 345 345 345
327 333 339 342 345 339 344 344 346 347 350 350 351 352 352 352 352 352 352 351 352 351 350 348 347 346 346 346 346 345 345 344 344 348 348 347 347 347 347 347 347 348 349 350 350 349 347 346 348 348 348 349 349 347 346 344 347 346 345 345 350 349 348 347 344 343 337 339 340 341 341 341 344 343 348 348 349 348 346 343 342 343 346 347 348
325 331 340 341 340 336 341 343 344 346 347 349 349 350 351 352 352 352 351 352 351 351 350 349 347 346 345 345 345 345 346 346 347 348 347 347 347 346 347 348 347 348 348 348 349 348 348 347 347 348 351 349 346 347 347 346 347 345 344 348 349 348 346 344 343 337 339 339 339 342 341 341 341 342 347 347 348 348 345 344 346 347 348 347 347
328 333 338 341 344 335 337 339 342 344 346 348 349 350 351 351 350 351 351 350 350 349 348 350 349 347 345 345 345 346 346 347 348 348 347 346 346 346 346 347 348 347 348 348 349 349 347 347 347 352 350 347 345 345 345 347 347 345 347 347 346 345 341 341 343 339 338 340 339 341 342 343 343 345 348 346 348 347 347 347 347 347 347 346 345
332 332 338 338 340 338 334 337 339 342 344 347 348 349 350 350 350 350 350 349 350 349 349 347 347 348 350 348 348 348 351 350 349 348 347 346 345 346 346 347 347 347 347 348 348 348 347 346 346 352 348 346 345 344 345 347 347 347 346 345 344 343 339 337 340 341 339 340 340 341 342 342 342 346 347 347 347 347 346 345 346 345 346 345 345
332 335 338 338 337 339 331 333 336 338 341 344 346 347 348 348 349 348 348 347 348 348 348 346 344 348 350 350 351 350 349 349 348 347 346 345 345 346 346 347 347 346 346 347 346 346 346 347 347 349 348 347 345 344 344 344 346 345 345 344 343 340 338 334 340 341 342 341 339 341 342 341 344 347 346 347 346 348 346 346 344 345 345 344 346
334 335 336 336 337 337 340 332 331 334 336 340 342 344 345 346 347 347 347 347 347 347 347 346 346 347 348 349 349 349 348 348 348 346 345 345 345 346 346 346 346 346 346 346 346 345 344 346 346 346 346 346 344 344 343 342 345 343 342 342 339 337 335 335 341 339 339 339 340 341 343 343 345 347 345 347 344 345 343 345 344 345 343 344 344
333 335 334 334 336 336 336 339 335 328 330 332 335 337 339 342 344 346 346 345 346 346 345 344 344 345 346 347 347 346 345 346 346 346 345 345 345 345 345 345 344 345 346 346 346 343 344 347 345 344 345 344 343 343 342 339 342 341 338 335 336 336 333 331 341 339 340 343 343 344 342 345 343 346 345 349 346 344 345 344 346 343 344 344 343
332 333 332 333 334 335 335 336 338 338 338 334 330 331 334 337 340 342 342 343 343 344 344 343 343 344 343 343 341 340 339 341 342 344 345 344 344 345 345 345 343 344 344 344 344 343 344 347 344 343 343 343 341 342 340 340 341 338 333 332 333 332 330 327 340 341 343 339 339 338 343 339 342 344 344 343 343 345 343 344 343 344 344 342 343
331 331 330 331 332 333 334 335 335 336 338 339 340 339 330 333 335 338 339 340 341 340 339 340 340 340 340 338 336 333 333 334 335 337 341 339 337 336 338 341 342 343 342 344 343 342 344 345 345 343 342 342 339 341 341 341 338 334 331 330 329 330 327 331 339 340 343 341 341 337 340 339 342 345 345 343 343 344 343 345 344 342 342 343 343
323 329 330 330 331 331 333 334 335 335 335 336 338 340 335 329 332 335 336 337 338 337 337 337 334 331 332 332 329 334 330 336 326 335 331 335 333 332 334 339 339 341 340 342 342 342 341 343 342 343 343 341 340 339 338 339 337 333 329 328 327 325 336 338 339 340 344 340 337 338 336 340 343 345 345 345 344 342 343 343 341 342 343 343 342
317 317 318 318 325 330 330 332 333 334 334 335 336 338 338 330 330 329 330 331 334 334 334 331 327 326 326 326 325 337 341 341 342 341 329 340 326 324 331 337 337 338 335 336 340 341 341 341 341 339 339 339 334 335 333 336 334 331 330 329 324 337 337 337 338 338 338 336 337 337 336 341 344 344 344 343 341 344 342 341 341 342 342 341 340
311 313 317 318 318 319 327 327 329 333 334 335 336 338 339 336 341 341 340 337 332 329 335 340 331 341 327 335 340 340 339 338 336 332 340 339 331 322 324 331 335 336 334 334 337 340 341 341 339 337 336 335 331 334 331 328 330 331 329 324 333 336 337 337 337 336 337 335 336 336 336 342 344 344 341 342 344 342 341 340 341 341 340 340 340
311 313 313 314 316 317 318 322 327 329 332 333 334 335 336 336 336 338 338 334 336 337 339 339 340 339 339 341 337 339 337 336 335 335 335 328 337 320 323 328 332 332 331 332 334 338 340 340 338 336 334 330 332 332 331 331 331 322 320 329 332 334 336 337 335 334 336 336 337 333 335 342 342 343 343 343 344 341 341 341 340 339 339 339 339
307 308 310 313 313 314 316 318 321 325 329 330 332 333 333 334 334 334 335 336 338 338 338 339 338 338 338 336 336 336 337 335 326 319 326 337 329 320 321 322 324 326 325 328 329 334 338 336 334 333 330 329 333 332 330 329 330 330 331 332 333 335 334 335 334 334 334 336 337 330 337 341 342 341 341 344 342 341 340 340 339 338 338 338 337
308 308 309 310 310 311 312 315 317 320 323 327 328 329 331 332 332 333 333 334 335 336 337 336 337 336 337 336 336 336 336 334 338 336 337 337 336 335 334 336 336 335 323 334 333 334 333 332 331 330 332 332 332 331 330 329 330 332 332 333 332 333 334 334 335 335 336 336 335 328 333 339 341 342 341 341 341 340 339 340 339 338 337 337 337
306 305 307 307 307 310 313 313 314 316 321 323 325 327 328 329 330 331 332 333 334 334 335 335 335 335 335 336 335 334 334 332 335 334 335 334 334 335 335 335 336 334 332 330 331 328 329 331 331 332 332 331 330 330 330 330 330 330 329 329 330 331 333 335 336 336 335 336 333 327 331 336 338 341 341 340 340 339 339 339 338 337 335 335 335
303 303 304 305 309 310 310 312 312 314 316 320 323 324 326 328 330 330 330 331 333 333 334 334 334 334 336 336 335 333 332 332 334 334 335 332 334 332 334 334 334 334 333 331 330 327 326 326 328 330 331 330 329 329 328 330 330 329 329 329 329 330 332 332 334 334 334 334 326 323 327 331 335 338 339 342 340 339 339 339 337 336 334 334 333
303 304 304 305 305 306 309 311 312 313 314 315 317 320 324 326 327 328 329 328 331 332 333 334 335 334 335 336 333 333 331 331 332 333 333 332 332 330 334 334 334 334 332 332 330 328 326 325 325 328 327 327 328 327 327 329 331 330 328 328 328 328 329 329 330 333 333 333 332 323 325 328 331 335 337 339 340 338 338 338 337 335 336 335 333
302 303 304 303 306 307 308 309 311 313 315 315 316 319 321 323 325 326 327 326 330 331 333 334 333 334 334 335 333 332 331 331 331 333 332 331 331 333 334 333 333 332 331 331 331 329 326 325 324 325 326 325 326 325 325 327 328 328 328 327 326 327 326 326 329 331 331 333 332 325 323 327 331 332 336 339 341 342 340 338 337 337 336 335 333
300 303 304 304 305 306 307 308 311 313 315 316 316 316 318 321 323 324 326 327 328 330 332 332 333 333 333 334 333 334 331 329 331 332 331 330 332 334 333 333 331 334 333 330 330 329 326 326 326 326 324 324 323 323 324 324 326 328 328 327 327 328 326 325 326 329 329 329 330 327 320 324 328 331 333 337 339 339 338 337 337 336 335 334 333
301 301 303 305 306 306 307 307 311 315 316 315 316 316 317 317 322 322 323 325 327 330 331 332 332 333 332 333 334 332 331 331 330 331 332 331 331 333 332 333 332 331 329 327 330 328 327 326 326 325 323 323 322 322 323 322 323 324 325 326 326 327 326 326 325 325 326 327 329 328 324 320 325 327 329 333 336 337 337 337 336 335 335 334 332
300 301 302 303 304 306 306 306 307 309 311 310 313 315 316 318 320 323 323 324 326 327 329 331 330 332 332 331 332 331 330 330 331 332 331 329 331 331 332 332 331 331 330 329 329 327 327 326 325 325 322 321 321 322 323 322 321 323 323 323 324 325 326 326 324 324 324 325 327 328 329 326 320 323 326 330 335 335 335 334 334 334 335 334 334
299 301 301 303 302 304 306 306 307 308 309 310 310 311 314 316 317 320 323 325 325 327 327 328 328 331 332 330 329 330 328 330 330 330 329 330 329 330 329 330 331 330 330 331 329 327 326 326 324 324 321 320 319 321 322 322 321 322 323 323 323 323 324 324 324 323 323 324 326 327 328 327 325 318 320 324 331 332 333 333 333 332 333 333 333
297 299 301 301 303 304 305 306 307 306 308 306 308 308 309 313 317 319 321 323 323 324 326 327 328 329 330 330 329 329 329 329 327 329 330 328 329 330 330 329 330 330 330 330 329 327 326 325 323 322 317 318 318 320 321 320 321 321 322 322 323 323 322 323 322 322 322 322 324 325 325 325 325 324 324 318 323 327 330 332 331 331 331 331 331
298 298 298 301 303 303 304 303 305 304 305 305 307 309 309 310 312 317 319 321 321 323 325 328 326 326 329 331 329 328 327 327 328 329 329 326 326 327 327 329 329 329 328 328 328 326 325 323 322 321 319 320 320 319 320 320 320 320 321 320 321 322 322 321 321 320 321 322 322 322 323 322 323 324 324 326 315 320 326 330 330 330 330 330 330
297 297 298 299 301 302 303 302 303 302 303 304 306 307 308 309 311 313 316 319 319 320 322 326 328 326 326 328 328 326 326 328 326 325 327 327 328 327 329 329 329 327 328 327 326 325 323 323 322 321 319 320 320 320 320 319 320 320 320 319 320 320 319 318 318 319 320 321 320 320 321 322 323 323 319 324 324 320 321 325 328 329 329 329 328
298 297 297 298 299 299 301 302 302 301 301 301 303 306 308 309 309 311 315 317 318 318 321 324 327 328 327 326 326 327 327 327 327 326 325 327 327 326 328 328 327 326 326 325 325 324 324 322 320 320 321 319 320 319 319 319 319 319 318 318 319 318 317 317 317 317 318 320 321 320 320 320 319 315 322 322 323 322 319 322 325 325 324 326 327
297 297 297 297 297 298 299 300 301 301 301 300 301 302 305 306 309 310 312 313 317 318 319 322 323 326 327 327 326 326 326 325 326 326 325 325 324 327 327 327 326 325 325 324 322 324 324 323 319 319 321 320 319 318 318 319 319 318 318 318 318 318 316 315 314 313 317 318 321 321 320 319 320 321 322 322 321 321 321 319 319 318 316 322 327
296 297 297 298 298 297 298 298 299 299 300 300 300 301 302 304 307 308 308 309 312 316 318 321 322 321 325 324 325 324 324 326 327 326 323 323 325 325 326 326 324 324 324 323 322 321 322 323 321 320 321 321 320 319 318 319 318 318 317 317 318 318 317 315 313 314 316 316 319 320 320 320 321 320 320 321 320 320 319 319 319 319 319 319 325
295 295 296 297 296 297 298 298 298 298 299 299 300 300 300 300 301 303 304 306 308 311 315 317 320 322 323 323 322 324 324 324 326 326 324 324 324 324 324 323 322 323 323 321 320 321 321 321 321 321 320 319 319 319 319 318 318 317 315 315 314 315 314 312 313 314 314 315 315 317 320 320 320 319 319 321 320 319 319 319 318 319 319 318 320
295 295 295 295 295 295 296 296 298 298 298 298 298 298 297 298 299 299 300 303 302 305 310 316 317 318 320 321 323 323 323 323 325 327 325 321 323 324 324 322 322 322 321 320 320 321 321 321 320 318 318 317 316 317 318 318 314 310 310 309 309 310 310 311 311 311 312 313 314 316 318 319 319 318 317 318 319 318 318 318 318 318 318 318 317
293 294 294 294 294 295 295 295 296 297 297 297 299 299 298 298 298 298 299 301 301 302 305 312 316 318 320 320 320 322 323 322 323 326 324 325 324 323 323 321 321 321 320 320 320 318 320 319 319 316 318 316 314 316 316 315 310 307 304 303 304 306 306 308 308 308 310 311 312 313 317 318 318 317 316 318 319 319 319 319 319 319 319 318 319
293 293 294 294 294 294 294 294 295 296 297 297 297 299 300 299 298 298 300 300 303 303 305 308 314 317 318 319 320 321 322 323 323 323 324 323 323 323 321 321 321 320 319 319 320 319 319 318 318 316 314 315 314 315 315 315 309 309 308 305 300 301 303 304 305 305 308 308 309 312 315 317 317 317 316 317 318 319 319 320 320 320 319 319 320
292 293 293 293 293 294 294 294 294 295 296 296 297 297 300 301 300 298 299 300 301 302 303 305 309 309 311 316 318 319 320 320 323 325 322 323 323 322 322 321 321 319 319 318 319 319 318 317 316 315 315 312 311 311 314 315 312 309 303 305 303 304 297 299 301 300 303 306 310 311 311 315 315 315 315 316 316 316 318 319 319 319 320 320 320
292 292 292 292 293 293 293 294 294 294 295 296 297 296 298 299 299 299 299 298 299 299 299 299 303 304 307 311 313 315 318 318 321 323 321 321 322 322 322 320 319 320 319 319 318 317 317 317 316 314 314 313 310 311 312 314 313 313 310 305 301 300 301 302 300 299 302 303 304 308 307 311 312 312 314 314 314 315 316 316 318 318 319 318 318
291 292 293 293 293 293 294 295 294 294 294 295 296 297 295 296 296 295 294 295 295 295 295 295 298 301 304 308 312 314 315 316 318 321 322 319 320 321 321 320 319 319 319 319 318 317 317 316 316 315 314 314 312 310 309 311 313 313 313 312 309 303 302 300 303 294 297 298 299 302 303 305 309 311 313 312 312 313 313 315 316 316 317 316 316
291 292 292 292 292 293 294 294 294 294 295 295 295 295 294 295 295 295 295 294 294 296 298 300 300 302 304 306 308 311 312 314 315 318 321 320 320 321 321 320 319 320 317 319 317 316 317 317 316 316 315 313 312 309 309 309 310 313 313 308 306 308 307 303 302 296 293 296 298 299 300 301 302 307 308 310 311 311 312 313 313 314 315 314 314
291 292 292 292 293 293 293 293 293 294 294 295 294 294 293 293 294 295 295 295 294 295 297 299 301 302 302 302 305 307 309 310 311 313 318 319 319 320 319 318 318 319 316 318 317 316 317 317 316 316 316 314 313 312 310 310 309 310 310 304 308 309 308 308 306 300 299 294 293 296 299 299 301 302 306 307 309 310 310 311 312 312 313 313 313
292 292 292 293 294 293 293 293 293 293 293 295 295 294 294 294 293 293 293 295 296 297 297 298 299 301 300 301 302 304 305 306 307 307 310 318 318 318 318 317 317 318 314 318 317 317 316 316 315 315 315 314 314 314 312 310 310 310 306 302 308 307 307 304 300 298 296 294 291 295 294 297 299 300 299 299 300 305 309 309 310 311 311 311 311
292 293 293 293 293 293 292 292 291 292 293 293 293 294 294 294 293 293 293 293 296 297 297 296 297 299 298 299 300 301 302 303 304 305 306 312 318 317 318 318 317 317 313 317 317 316 316 316 315 315 315 313 313 312 311 311 311 312 308 304 305 305 305 302 301 300 297 298 294 295 296 296 297 294 296 298 299 300 302 305 307 308 308 309 309
291 292 292 291 291 291 291 291 291 291 292 292 292 292 293 293 293 293 293 293 294 297 296 296 296 297 297 297 298 299 300 301 302 303 305 307 315 316 317 318 317 314 312 316 316 316 316 315 315 315 314 313 312 311 310 310 310 310 307 304 306 306 305 304 303 302 300 294 295 295 298 300 300 296 294 297 297 298 299 302 304 304 306 307 307
Wind_Speed
8 5 4 8 3 4 8 10 11 12 12 13 14 14 15 15 14 14 13 13 14 15 15 14 14 14 14 14 14 13 13 13 12 12 12 11 11 11 10 10 9 9 10 10 10 10 10 10 12 12 8 8 9 11 15 17 16 13 13 14 13 12 12 11 11 13 10 9 9 9 8 9 11 11 13 13 13 12 11 10 8 10 8 12 15
4 6 6 7 6 2 7 10 11 11 12 12 14 13 14 15 14 15 15 14 14 14 15 14 15 14 14 13 13 13 13 13 13 12 12 11 11 11 11 11 10 11 11 11 11 11 11 11 12 12 9 9 11 12 15 15 16 14 14 16 12 12 12 10 9 10 10 8 7 6 6 9 10 12 14 13 12 10 9 8 10 10 9 14 14
2 6 5 6 8 3 4 8 11 11 12 13 13 13 14 14 14 14 15 16 15 15 15 14 15 14 14 13 13 13 13 13 14 14 13 13 13 12 12 12 12 12 12 12 11 11 12 12 12 13 10 11 11 12 15 16 15 13 14 15 11 12 11 10 10 10 9 8 6 5 5 7 9 11 14 14 13 12 8 7 8 12 10 16 13
3 4 5 7 9 6 5 7 8 11 11 12 13 12 14 14 14 14 15 16 16 16 15 15 15 15 14 14 14 14 14 14 14 14 15 14 14 13 13 14 13 13 13 12 12 12 12 12 13 14 8 12 13 13 14 18 16 16 15 13 12 11 11 11 9 10 10 7 6 5 5 7 7 10 14 15 15 9 3 7 12 14 17 15 15
4 5 5 6 9 8 7 8 9 10 11 11 12 14 14 14 14 14 14 15 16 16 16 15 15 15 15 15 15 15 14 14 14 15 16 15 15 14 15 15 15 14 13 12 13 12 12 12 13 15 11 12 14 14 12 14 13 11 7 11 11 12 12 11 9 9 9 7 7 6 6 8 7 9 14 15 14 8 7 11 14 17 16 16 14
4 4 5 6 8 11 9 9 10 10 11 12 13 14 14 14 14 13 13 15 15 16 16 15 15 15 15 15 15 14 14 14 14 15 16 15 15 15 15 16 15 14 13 13 13 13 12 12 13 15 14 12 12 12 14 12 9 9 13 14 12 13 12 11 9 9 8 8 7 5 7 8 8 8 14 15 12 8 13 14 14 16 16 17 15
4 4 5 6 6 9 13 11 11 10 10 10 11 12 13 14 14 14 14 15 15 15 15 15 15 15 15 15 15 15 15 15 15 15 15 16 15 15 15 16 16 15 14 13 13 13 13 13 14 15 15 14 13 13 13 14 15 12 13 16 12 13 12 11 10 9 10 7 6 6 6 8 8 6 14 13 13 13 16 16 16 15 16 16 17
4 3 5 6 6 7 15 15 12 10 10 10 10 10 11 12 12 12 13 13 14 15 15 15 15 15 15 15 15 15 15 15 15 15 15 15 16 15 15 15 15 15 14 13 13 13 13 14 14 16 14 14 14 15 13 16 16 16 15 13 13 13 13 11 10 9 9 8 7 7 5 7 8 6 13 14 15 17 17 16 15 16 17 16 12
6 4 5 6 6 5 11 12 13 10 9 9 10 10 10 11 10 10 11 11 12 13 14 15 15 15 15 16 15 15 15 15 15 14 14 15 15 14 14 14 14 15 14 14 13 14 14 14 15 16 16 15 14 16 15 18 18 15 16 20 14 14 13 11 10 10 8 7 8 6 6 7 8 8 12 15 16 18 17 16 15 17 18 12 13
7 5 4 5 6 6 5 7 11 9 9 8 9 9 10 11 10 10 11 11 11 12 14 15 15 15 15 16 15 15 15 15 14 14 12 8 5 8 13 14 12 13 15 15 14 14 15 15 16 17 15 17 15 14 16 21 19 16 14 15 14 15 13 10 9 9 9 7 7 6 6 7 8 7 13 15 15 17 15 12 10 11 11 13 11
8 7 4 5 4 5 2 5 7 7 8 6 9 8 10 12 10 11 11 12 11 12 15 16 16 16 15 15 15 15 15 15 13 8 7 7 8 8 9 10 11 13 14 16 16 16 16 16 16 18 14 17 17 18 18 21 18 18 21 17 15 15 13 10 10 7 8 7 7 7 5 6 5 6 14 17 17 15 11 10 12 12 13 13 18
9 6 5 4 1 6 4 4 6 9 9 10 9 11 11 11 10 11 13 13 14 15 14 16 16 16 15 16 16 16 15 13 12 9 9 8 9 8 9 9 11 12 14 15 16 18 18 17 18 15 15 15 15 18 22 20 19 19 15 13 13 15 13 10 8 6 6 7 7 6 8 8 10 8 16 18 18 17 11 12 16 17 17 19 19
9 8 5 4 5 5 3 4 7 10 10 10 10 9 10 10 10 10 10 10 12 14 15 11 12 13 15 14 13 14 12 12 12 11 10 10 10 10 10 10 11 12 13 14 16 18 19 19 19 15 16 17 17 19 22 21 21 21 16 14 13 13 11 13 7 4 4 5 6 7 7 7 8 11 18 19 19 19 13 17 19 19 20 20 20
8 7 5 6 5 1 4 6 8 10 12 11 11 10 10 10 9 8 8 12 10 11 11 10 13 13 11 11 13 13 11 12 12 12 11 11 10 11 11 11 12 13 14 14 16 18 20 20 20 17 18 19 19 21 20 21 20 18 17 16 14 12 11 6 0 1 3 5 4 7 7 6 5 15 17 16 20 19 18 18 19 20 21 20 20
9 8 7 6 6 6 5 5 8 11 11 12 12 11 10 12 9 11 9 9 9 9 11 13 15 11 8 9 10 9 10 11 12 12 12 11 10 11 11 11 12 13 13 14 14 16 17 20 14 15 18 19 20 23 21 20 19 18 16 16 15 13 12 7 3 3 2 4 5 6 6 6 7 14 17 19 17 19 22 19 19 21 20 20 18
9 8 8 6 6 6 4 5 9 10 9 12 11 11 11 10 11 9 9 9 9 11 12 10 9 9 9 9 10 11 11 11 12 13 12 11 10 10 11 12 12 12 13 13 12 14 15 14 13 14 16 18 18 19 21 19 18 20 19 16 13 13 12 2 4 4 5 5 5 6 5 5 9 15 18 18 19 20 21 22 21 20 21 21 21
8 8 8 8 7 6 6 6 7 10 11 11 10 11 11 10 11 11 9 10 10 10 9 11 12 12 11 10 10 10 10 10 10 11 11 10 10 10 10 11 11 12 13 13 11 11 16 15 17 17 17 22 23 22 23 23 19 18 19 17 13 12 9 1 2 2 3 3 2 0 3 5 10 15 19 20 23 23 21 23 22 22 22 22 23
6 7 8 8 8 7 7 7 6 8 9 10 12 13 10 10 11 11 11 11 11 10 9 10 12 12 11 10 10 9 10 10 10 10 10 10 9 9 10 7 8 5 4 7 9 13 16 15 18 18 18 21 20 22 22 20 21 20 18 16 14 13 10 5 2 3 0 2 3 3 1 2 12 14 14 19 22 20 23 22 23 23 23 24 24
5 4 6 7 9 9 7 7 7 8 8 9 10 11 15 14 12 12 12 12 12 11 10 10 10 11 12 10 10 10 9 9 9 10 11 10 9 7 5 5 5 4 5 8 11 14 14 15 18 18 19 23 22 20 24 23 20 20 19 17 15 13 9 5 4 3 2 2 3 3 0 8 13 18 23 23 22 22 23 23 22 24 24 25 24
8 6 6 7 8 9 8 7 7 8 8 8 9 11 11 16 14 13 12 13 12 11 10 11 11 11 11 11 11 10 8 7 9 8 9 9 6 4 3 3 3 2 2 7 9 11 14 14 12 17 18 22 26 21 22 22 22 21 19 17 15 12 7 6 5 4 2 2 3 3 1 11 15 18 20 19 20 21 23 24 25 25 24 23 25
9 13 14 12 11 10 10 9 9 9 9 9 9 9 10 9 12 13 13 12 12 11 11 11 12 10 11 10 11 9 9 8 8 8 9 8 6 6 4 1 2 3 3 0 9 12 15 14 15 14 15 18 15 20 19 21 21 20 19 16 14 9 7 7 6 4 3 2 2 4 9 13 17 19 19 23 22 24 23 23 25 26 26 25 25
13 12 13 14 14 12 12 12 10 11 10 8 7 7 8 9 10 11 11 12 11 11 10 10 10 11 11 11 9 9 9 9 10 10 9 6 6 7 5 2 0 4 4 6 12 15 16 17 18 14 14 15 20 13 14 17 19 18 17 16 11 7 6 6 6 4 6 4 3 3 9 12 16 18 19 21 22 21 24 25 24 23 25 26 25
14 12 11 15 13 12 13 13 13 13 13 12 10 9 10 9 10 11 11 11 12 13 12 13 12 14 12 10 9 10 11 9 9 7 6 7 6 9 5 3 4 6 7 7 5 9 15 20 22 18 16 18 13 9 9 9 11 16 14 11 8 6 7 5 5 6 6 6 7 8 7 11 17 18 20 20 22 24 25 24 26 26 26 25 25
14 12 12 10 14 13 13 13 13 13 12 11 10 10 10 9 9 9 10 11 12 12 14 14 13 14 13 13 12 11 9 10 2 6 7 7 6 6 5 4 6 4 9 6 5 9 16 17 16 21 18 11 9 10 11 9 8 7 8 8 6 6 8 4 6 6 6 5 6 5 9 12 16 17 20 23 26 27 27 26 24 25 26 25 24
12 12 12 12 15 14 13 12 12 11 12 10 11 11 10 10 9 9 10 10 10 11 12 13 13 13 14 13 13 11 9 9 5 5 7 7 7 6 5 5 4 4 7 3 2 5 9 10 12 9 7 9 9 10 10 10 9 9 7 7 7 7 7 4 2 5 5 5 6 6 7 13 16 16 21 22 23 25 26 26 25 24 23 24 23
12 12 14 14 16 16 14 13 13 12 11 10 10 11 12 10 11 10 10 10 10 11 11 11 12 13 12 12 11 11 11 9 6 8 6 7 7 6 6 6 6 5 7 5 2 2 1 10 10 9 7 8 8 6 8 10 10 8 6 6 7 6 6 5 4 4 4 5 5 8 7 9 14 16 17 21 26 26 25 25 24 24 22 22 23
13 14 14 13 14 16 16 14 13 12 13 11 10 10 10 11 11 11 12 10 10 11 11 11 12 13 12 12 11 11 12 10 8 8 6 9 8 7 7 7 8 8 7 8 7 9 4 3 5 8 8 7 8 8 5 5 8 9 8 6 7 6 5 6 5 4 3 4 4 8 8 8 6 12 19 22 23 25 28 26 25 24 22 21 21
13 16 15 15 15 18 18 18 14 14 12 12 11 10 9 11 11 11 12 14 11 10 11 11 11 12 13 10 11 11 12 10 10 6 6 8 8 8 8 7 8 7 8 8 8 8 10 7 2 4 8 8 8 6 6 8 6 7 7 6 7 6 6 7 4 5 4 3 4 6 8 7 4 5 20 23 24 26 26 26 26 26 24 24 23
15 15 14 15 17 17 17 18 17 15 13 13 11 10 10 10 11 12 12 11 12 12 11 11 11 12 12 12 11 12 10 11 11 8 8 10 8 8 8 8 8 9 10 9 8 9 9 8 7 7 9 8 8 7 5 6 6 5 5 7 7 7 7 6 4 4 5 3 4 5 8 6 6 3 13 26 25 24 25 27 27 26 26 25 23
17 15 15 14 15 18 18 18 18 16 14 13 11 11 10 10 10 11 12 12 13 14 14 11 11 12 9 10 13 10 11 11 10 9 9 11 9 9 8 8 9 9 10 9 8 8 9 8 9 7 7 12 9 7 8 6 7 6 5 5 6 6 8 7 4 3 4 4 5 6 9 7 6 5 4 21 24 28 28 27 27 26 24 24 23
17 18 16 15 15 16 17 18 17 15 15 14 13 13 12 12 10 10 10 12 13 13 13 13 12 10 9 11 10 12 12 10 9 11 9 10 9 9 8 8 8 9 9 6 8 8 8 9 10 7 7 7 11 8 5 6 6 6 6 7 7 6 6 7 5 4 5 4 5 5 7 10 8 4 5 8 20 25 27 26 27 27 25 24 24
16 16 15 15 16 17 17 18 17 16 16 17 14 13 12 12 12 11 10 11 13 13 13 13 12 10 9 10 10 13 13 12 12 11 12 9 7 7 9 9 9 8 9 11 10 11 9 9 9 10 9 7 8 11 7 6 7 7 7 6 5 5 6 7 8 5 5 5 6 6 5 7 10 6 3 3 12 12 21 27 25 26 25 25 25
13 16 17 17 18 16 15 16 16 18 18 18 16 15 13 13 12 11 11 10 12 12 13 13 14 13 11 11 11 14 9 9 10 11 11 12 11 11 9 10 10 10 9 10 12 10 11 8 10 11 9 7 7 7 8 6 6 7 7 7 5 5 5 7 6 6 4 6 7 7 7 7 6 9 7 7 12 10 15 22 25 25 25 24 24
14 13 16 17 16 13 12 12 14 17 17 16 16 15 15 14 12 12 11 13 12 12 11 13 13 13 13 11 11 11 12 12 13 12 10 10 11 10 9 11 8 9 8 8 8 9 10 8 7 9 11 10 9 8 9 9 7 6 6 7 7 6 4 5 6 6 5 4 7 8 7 7 6 5 5 7 11 15 14 19 21 23 23 23 23
15 16 17 17 17 16 13 13 15 17 15 16 16 16 15 15 14 12 12 13 13 12 12 11 12 14 13 8 6 9 12 14 11 11 9 5 8 6 10 9 8 9 9 9 8 9 11 10 8 9 9 9 10 9 10 10 10 9 8 7 7 6 5 5 5 6 5 5 4 7 8 7 6 6 4 4 7 13 15 16 20 21 21 22 23
17 17 16 16 16 16 16 16 16 17 16 15 15 15 15 15 15 13 13 12 12 14 13 10 10 12 13 11 10 12 11 9 12 10 12 10 8 11 10 9 12 10 9 10 10 10 12 11 10 11 13 11 11 11 9 10 10 10 8 7 7 8 6 5 6 4 4 5 5 6 7 8 8 7 5 6 6 10 16 16 16 17 20 20 21
15 17 17 17 17 17 15 16 17 18 18 18 17 15 14 15 15 16 15 13 12 12 13 12 11 11 10 9 13 11 10 13 12 13 14 12 10 11 11 10 11 9 10 10 10 10 11 12 12 11 12 13 13 12 10 10 9 10 8 8 7 8 8 6 6 4 3 4 5 5 6 6 6 7 5 6 6 7 11 15 17 18 17 18 20
14 16 17 16 16 16 15 14 15 15 16 16 16 15 13 14 13 13 14 15 14 11 11 11 12 11 10 12 12 12 10 14 13 14 13 11 9 12 11 11 11 11 11 10 9 9 11 12 14 13 11 10 12 14 12 10 9 9 9 9 8 8 8 6 5 5 4 4 6 7 4 6 7 7 5 6 7 7 7 11 15 15 15 15 17
13 16 16 15 15 16 15 16 15 16 15 16 16 15 14 13 11 12 13 14 14 12 11 10 9 12 11 12 13 11 12 14 15 13 10 11 10 7 7 12 8 9 11 11 12 9 11 12 15 13 13 12 12 14 14 12 10 10 10 11 9 8 7 6 5 5 6 3 4 7 7 7 6 6 5 6 7 8 8 7 8 8 11 16 12
15 15 17 16 15 16 15 16 15 16 16 14 13 13 13 12 13 12 12 12 14 14 14 12 11 10 11 13 14 14 13 15 15 9 11 12 10 12 10 11 10 9 13 11 11 11 13 14 14 13 13 11 10 11 13 12 11 11 10 7 6 6 7 7 6 7 5 5 3 4 7 7 7 6 5 7 8 7 7 7 7 7 8 14 16
16 17 17 16 17 18 18 17 16 17 15 14 13 13 14 14 12 13 13 12 13 15 15 13 13 11 11 13 14 13 14 17 14 11 12 10 10 10 11 13 13 12 14 12 14 14 12 13 14 13 15 13 10 10 11 12 12 8 7 7 6 5 5 4 7 7 7 5 4 4 6 8 8 7 4 5 9 10 8 8 7 7 7 9 12
18 18 18 18 18 18 17 16 15 16 17 15 13 12 12 12 13 14 13 12 12 12 14 15 14 12 11 11 13 15 15 15 16 10 13 12 12 10 11 12 13 12 13 13 15 14 14 13 11 11 11 13 11 12 13 13 12 13 12 7 4 5 5 4 4 4 5 6 7 5 5 9 9 8 4 5 8 9 9 8 7 7 7 9 9
18 19 18 19 19 17 16 18 16 16 16 16 14 13 13 13 14 14 14 12 10 10 12 14 15 13 12 11 11 12 16 14 17 13 11 13 13 13 12 12 15 13 12 14 14 15 14 15 16 14 11 9 9 11 15 17 15 11 11 12 7 7 1 3 3 4 3 4 5 6 7 9 12 10 7 7 8 9 8 8 8 8 8 8 8
17 17 18 18 16 16 19 19 19 17 16 16 16 16 15 15 15 14 14 13 12 10 10 11 12 16 16 14 11 10 13 17 17 14 12 13 14 13 12 13 14 14 15 14 12 13 14 14 15 14 15 13 8 11 14 15 13 17 12 11 10 10 7 5 5 1 2 3 5 7 6 9 10 10 8 9 7 7 8 9 9 9 8 8 8
17 18 18 18 15 19 19 19 18 19 18 18 19 19 17 14 14 14 12 13 12 11 10 10 9 11 13 13 13 12 12 13 16 17 14 16 15 14 14 15 14 14 14 14 15 18 16 16 16 15 16 16 14 11 13 14 14 16 16 9 6 8 12 10 10 3 2 3 1 2 6 9 10 10 9 8 7 9 9 10 9 9 9 8 8
19 18 18 19 21 20 21 21 19 18 19 19 20 19 17 16 15 15 15 13 12 11 11 11 11 10 11 13 13 11 12 13 13 16 14 14 16 16 15 14 16 15 15 15 14 12 15 17 18 17 18 12 14 14 13 9 11 13 11 13 12 12 13 11 14 6 2 4 3 2 4 5 6 8 9 10 9 8 8 10 9 8 9 8 8
21 20 20 21 23 23 21 21 20 19 17 19 21 17 19 17 19 18 15 18 15 10 8 7 8 8 9 11 12 11 12 12 14 16 17 15 15 14 14 14 16 15 14 15 16 15 14 17 15 15 16 15 14 15 17 13 7 9 6 1 5 8 14 16 13 8 6 0 2 2 3 2 3 6 9 9 11 10 8 8 9 8 8 9 8
20 19 18 17 19 18 18 20 22 25 21 15 20 19 19 19 18 20 16 16 17 14 12 9 7 8 9 10 9 10 10 11 12 15 17 15 15 14 13 10 11 15 15 14 16 14 14 15 18 20 15 14 18 17 18 15 15 14 7 4 6 11 16 11 8 14 13 14 6 3 2 4 4 3 6 8 8 11 9 9 9 8 7 8 8
18 18 20 18 14 21 25 24 22 20 28 23 15 21 19 19 20 18 18 16 17 15 11 10 6 6 8 8 8 9 8 9 11 14 18 16 12 14 14 13 12 11 12 14 14 17 21 20 19 16 16 16 17 18 16 16 14 14 10 4 8 11 12 7 11 6 7 8 4 8 9 2 4 3 3 4 4 7 8 8 8 9 8 7 7
18 18 18 16 19 16 19 19 24 22 20 26 23 22 22 20 20 20 20 19 16 16 12 11 9 5 9 8 8 8 8 8 9 12 16 18 17 15 16 16 15 14 12 15 14 17 17 18 19 19 18 16 13 15 18 17 15 13 10 9 11 11 10 7 7 10 5 8 12 10 11 11 11 2 2 3 5 6 5 6 7 6 7 7 6
20 22 21 21 22 23 23 27 24 23 24 23 24 26 23 21 20 20 22 21 20 18 17 12 11 8 7 8 8 8 7 7 7 10 13 17 18 14 14 15 15 13 14 16 15 16 17 15 17 19 19 20 16 16 14 12 12 11 12 10 13 17 17 16 15 13 12 7 8 6 10 12 13 10 2 2 3 5 5 6 6 6 6 7 6
Wind_Direction
193 201 203 131 182 197 192 195 201 205 201 205 208 208 204 202 202 201 197 202 200 201 200 198 199 197 192 191 191 191 193 193 197 200 204 207 211 212 217 224 234 240 245 251 255 256 255 255 258 259 249 195 202 206 200 197 197 198 226 223 179 161 150 145 140 136 136 138 140 139 132 130 133 133 130 126 125 125 128 132 134 117 119 122 117
146 188 201 163 166 222 206 207 211 208 205 204 207 205 205 204 206 206 199 199 201 206 205 202 200 203 199 198 198 197 197 198 201 203 207 209 211 214 217 223 231 237 243 245 249 254 256 255 256 257 249 183 188 202 213 196 194 199 208 213 170 153 148 141 132 131 136 136 138 137 136 132 135 137 134 131 128 131 137 150 134 119 120 117 115
291 184 189 176 163 189 215 210 208 210 212 206 205 204 204 208 211 210 206 205 201 205 209 206 202 202 205 203 210 212 214 216 216 216 215 216 219 219 221 221 225 231 238 242 245 249 253 254 253 255 247 180 189 206 214 196 188 191 211 197 163 152 145 135 136 133 132 131 136 135 133 130 140 145 141 137 134 135 141 139 113 112 125 117 115
256 207 197 152 163 188 201 216 217 209 210 210 208 208 207 208 210 207 210 206 203 203 206 207 207 207 208 209 211 218 220 224 225 223 221 218 218 220 222 222 224 227 230 237 242 244 247 250 252 253 209 179 185 203 217 196 187 190 200 187 161 148 131 128 132 134 131 131 136 159 155 152 147 155 147 142 138 133 110 126 120 121 123 118 118
246 233 211 165 181 189 207 212 221 215 209 212 209 211 212 210 211 207 207 206 205 205 206 209 211 213 215 219 218 219 223 226 225 226 224 221 216 216 217 219 224 226 228 233 238 240 242 246 249 250 181 185 187 195 207 218 194 190 192 178 162 135 125 130 133 137 126 136 150 192 170 163 158 157 154 147 139 125 129 113 120 128 124 121 119
236 245 223 203 185 187 195 210 219 224 214 212 212 211 214 214 212 208 205 208 210 209 210 213 216 218 221 223 227 226 224 225 225 228 226 223 218 215 212 216 220 223 228 231 235 238 240 243 244 246 176 188 195 187 187 215 247 206 172 212 146 132 134 133 136 135 133 151 168 203 175 167 166 160 161 152 133 132 126 124 130 128 128 127 126
254 262 249 226 197 191 180 205 216 228 228 220 215 213 213 215 213 209 207 209 211 214 218 221 225 227 228 228 228 226 226 226 231 230 229 227 223 217 214 213 217 220 223 226 231 234 237 239 240 243 187 190 189 184 185 188 202 209 213 195 141 138 135 137 141 141 146 161 177 220 183 175 165 159 163 157 140 137 134 138 137 134 135 134 133
258 251 260 245 224 174 174 196 211 226 233 226 222 220 221 219 214 207 204 208 212 214 219 222 223 227 229 231 229 227 227 230 232 232 233 231 229 223 220 220 220 223 224 226 227 230 232 235 236 237 208 188 187 181 180 180 194 193 197 190 145 144 143 141 143 146 155 175 186 209 197 175 167 163 170 162 153 147 146 143 141 141 140 138 129
248 252 258 259 243 137 172 189 207 224 233 230 225 223 226 226 221 211 210 214 212 213 219 224 225 227 230 232 231 228 229 231 233 233 234 234 231 229 228 227 226 230 231 233 234 231 231 231 234 234 219 192 184 184 178 185 194 180 177 183 144 145 143 144 146 147 172 191 195 203 199 180 171 167 175 166 164 152 152 149 147 146 140 131 136
276 247 254 262 268 133 173 199 208 227 234 238 231 226 227 226 224 223 222 221 221 220 223 228 230 231 231 232 234 233 231 233 234 235 234 233 262 262 240 234 233 235 240 243 243 240 234 231 232 233 219 188 175 179 178 183 178 165 162 178 145 148 147 142 148 169 180 196 203 213 200 200 179 176 173 171 166 159 149 151 148 143 137 142 135
289 263 243 252 289 78 177 213 235 247 239 243 232 232 230 228 225 227 224 223 225 225 227 231 233 235 239 237 236 236 235 233 230 227 235 240 248 259 275 255 240 245 249 250 249 247 238 232 230 233 210 196 171 172 181 182 166 165 172 179 149 145 148 151 162 178 191 199 205 213 183 137 194 189 174 173 165 156 150 141 130 134 141 133 132
302 277 254 258 164 91 334 254 261 263 257 247 240 235 231 229 226 232 229 223 225 229 230 231 235 239 238 238 238 239 238 233 222 220 226 235 243 254 260 261 258 255 255 254 252 249 243 234 231 224 189 188 177 178 178 171 168 160 171 171 150 145 144 159 177 178 199 206 211 212 195 184 188 187 176 175 166 159 149 140 142 148 139 137 136
312 308 299 274 261 138 165 256 275 277 268 265 250 243 233 229 232 235 234 233 233 234 235 238 248 246 247 246 247 245 241 232 223 214 216 225 237 246 253 257 261 262 261 260 256 250 243 235 232 194 178 183 179 193 178 170 166 161 146 145 145 139 146 167 195 186 185 209 212 212 206 194 211 154 179 182 162 159 152 151 151 146 141 140 137
310 309 300 292 291 126 184 217 250 268 264 262 259 258 249 237 233 235 244 243 245 241 242 244 244 245 246 245 243 235 216 219 220 219 218 220 228 239 245 251 259 262 263 263 260 253 244 235 235 189 185 186 181 191 183 166 162 148 144 142 148 141 154 177 307 186 212 219 228 212 216 184 203 153 183 171 168 153 164 163 150 146 142 140 139
319 319 315 304 291 279 152 226 240 248 261 261 261 263 261 247 239 241 244 246 249 258 250 240 245 244 241 238 225 218 216 216 218 221 224 227 229 236 245 251 258 263 264 266 270 262 246 236 219 184 196 192 187 188 187 170 156 150 140 142 145 149 155 171 176 193 167 245 216 221 213 202 141 169 176 168 165 163 164 152 150 144 142 141 137
326 318 312 301 287 285 261 203 234 251 265 261 272 277 273 270 253 244 246 247 254 255 260 260 267 261 246 237 230 224 219 218 220 219 223 229 231 236 245 252 261 272 273 267 261 274 253 232 197 181 184 189 192 190 190 178 156 153 146 139 133 146 168 160 179 182 184 208 206 214 213 202 158 172 172 163 161 174 165 147 148 142 142 138 135
313 310 305 292 285 273 268 258 213 222 250 266 272 271 276 277 268 250 249 249 248 250 255 257 254 256 249 238 229 222 220 224 224 225 226 229 232 239 248 259 271 282 275 263 258 237 233 202 195 193 187 186 186 185 184 177 158 150 142 135 137 143 157 253 198 267 197 188 131 358 236 190 169 167 172 168 167 170 157 151 145 142 140 139 137
298 302 300 298 290 278 268 262 259 210 229 235 244 253 261 265 267 256 239 243 246 245 241 246 251 251 249 233 223 217 217 218 227 230 233 232 234 241 251 269 272 277 276 254 241 222 220 199 188 195 190 183 182 183 172 172 157 148 141 141 141 150 167 182 201 239 5 104 115 102 272 178 159 150 169 173 169 157 157 147 143 139 141 140 134
272 281 288 295 296 292 281 269 256 257 248 240 240 229 232 245 250 252 242 237 237 237 236 245 251 248 242 232 221 219 218 220 226 232 233 233 232 247 259 255 264 244 250 224 208 209 214 194 195 192 188 182 181 176 163 158 149 143 143 144 148 161 164 179 178 189 146 115 88 101 92 172 152 160 174 172 168 158 154 144 140 143 141 135 132
351 311 311 316 307 302 294 285 275 266 257 255 251 254 220 223 235 247 249 244 238 234 235 239 244 242 235 229 224 222 217 221 219 230 237 236 226 254 182 241 251 208 258 201 192 193 208 198 190 182 168 165 175 165 160 151 147 146 145 147 155 153 158 186 156 187 133 108 111 89 243 168 164 165 163 161 156 162 154 144 149 139 135 135 132
356 357 352 350 339 322 311 298 289 278 271 264 259 254 260 211 224 234 245 249 247 236 237 238 240 236 229 223 226 224 227 227 212 221 208 220 178 180 174 162 262 182 120 222 208 191 202 187 169 154 168 151 161 156 150 145 145 145 145 149 149 156 167 171 151 159 122 98 119 124 209 176 165 162 166 162 170 157 150 149 147 139 140 139 135
7 358 358 352 345 338 327 316 302 290 283 274 266 256 256 249 240 237 227 233 232 237 239 241 236 240 214 226 223 227 234 232 237 224 220 189 158 159 153 144 263 161 157 192 229 192 181 172 162 147 147 160 142 139 136 132 135 141 145 146 154 160 155 154 160 155 133 172 148 147 216 164 160 162 165 169 157 158 153 147 140 140 138 135 135
7 358 358 356 352 341 336 326 317 311 298 284 276 270 258 255 250 246 251 231 233 227 234 233 239 241 238 223 226 234 235 239 243 235 226 194 167 158 152 157 58 136 169 198 261 180 159 154 147 137 139 135 130 129 130 135 138 137 141 149 156 162 154 165 164 149 161 160 156 170 194 167 164 165 171 169 160 158 148 148 146 143 137 135 133
7 4 358 1 358 350 343 332 325 316 307 297 291 280 271 260 255 254 248 248 240 238 236 239 239 242 242 241 235 230 228 237 186 161 174 150 142 142 152 117 90 140 188 190 177 209 142 125 125 134 139 139 133 138 135 136 135 141 148 149 144 156 153 169 160 167 164 141 127 111 154 168 160 162 168 170 164 155 151 146 143 142 139 136 134
8 1 2 5 1 353 347 337 328 317 311 305 294 286 280 275 266 256 254 253 249 243 239 240 238 238 239 240 238 230 226 225 192 219 207 199 181 172 170 182 170 164 185 152 225 207 136 131 124 132 140 127 138 143 140 142 142 148 155 148 141 134 131 130 116 155 133 134 106 121 118 155 165 165 168 166 161 156 148 144 147 147 141 136 134
4 6 1 1 2 357 350 346 335 325 311 304 301 301 294 279 272 264 258 252 253 252 244 242 240 234 237 237 236 232 229 226 189 224 217 220 205 190 183 189 150 159 171 106 96 82 109 134 135 137 136 132 124 112 141 144 146 142 142 137 127 118 117 107 96 92 138 133 115 127 124 141 168 172 173 175 165 155 148 148 146 145 144 146 147
6 4 358 356 352 353 352 349 348 337 325 310 301 294 291 286 277 272 265 257 251 254 250 243 243 239 229 229 229 231 229 225 202 204 207 221 211 202 186 190 162 166 163 133 135 126 99 95 133 132 127 125 123 126 116 130 145 145 141 135 125 115 111 113 87 103 124 123 95 118 124 113 146 188 191 188 171 162 153 148 146 145 144 146 147
2 1 359 357 353 353 352 350 352 349 339 329 314 303 293 289 283 282 272 267 262 252 252 246 245 242 234 235 231 229 232 224 221 183 213 227 211 205 187 181 175 164 154 151 144 145 142 144 136 112 118 123 121 117 124 145 138 135 132 121 114 109 123 107 91 101 118 126 120 124 129 127 75 174 200 179 173 163 155 150 148 146 144 147 145
359 359 358 358 352 349 350 351 348 348 344 334 322 313 302 293 291 286 278 277 266 259 249 245 244 246 242 231 235 231 227 226 222 194 202 216 206 201 181 182 175 161 155 151 166 145 149 152 159 163 148 147 140 135 137 140 133 129 127 118 121 122 128 117 119 106 116 113 118 131 133 121 95 78 206 187 164 156 152 152 151 147 147 148 145
355 353 356 356 352 348 349 350 348 347 342 335 333 322 311 299 292 288 288 283 273 268 260 248 241 244 239 238 235 230 227 225 221 214 206 207 198 186 181 179 180 166 161 158 162 157 156 162 164 187 176 153 149 149 144 150 136 127 124 107 122 124 144 133 121 105 103 107 114 125 119 103 107 129 205 168 161 159 160 155 151 148 147 147 152
353 354 353 352 350 349 348 347 346 346 339 337 333 325 319 308 293 287 286 282 278 271 265 256 245 236 238 247 247 234 224 222 221 214 213 209 191 181 179 183 182 173 173 176 182 165 158 166 162 171 175 174 149 142 144 146 135 131 130 128 135 132 140 133 135 136 125 129 127 128 129 133 117 91 49 185 166 161 156 154 149 148 148 145 150
353 350 352 346 347 347 348 346 345 346 340 339 333 328 322 313 305 295 280 278 279 276 271 261 254 244 235 235 240 246 227 220 219 211 212 211 191 203 174 180 182 176 179 171 172 175 166 170 169 161 169 172 162 149 153 154 150 153 148 151 137 133 142 140 144 162 148 137 126 122 120 116 127 113 140 186 155 174 157 147 146 146 147 151 151
350 348 349 348 348 347 346 343 346 342 343 338 336 330 323 319 312 300 292 287 284 276 272 267 259 254 243 227 230 239 253 244 237 219 206 211 176 198 184 181 182 187 172 172 170 162 169 168 177 161 157 165 161 154 145 151 156 158 156 153 149 155 157 146 141 141 148 137 130 128 126 125 140 142 174 228 160 153 156 142 145 148 149 151 152
347 344 345 348 346 344 344 339 343 341 340 336 336 330 327 319 310 304 297 294 284 279 272 265 265 262 251 233 228 245 242 229 220 229 207 225 198 180 187 186 169 164 168 164 165 161 163 164 167 153 159 165 171 167 154 159 161 157 156 155 164 165 165 152 146 145 144 144 138 127 125 125 131 137 184 215 164 164 160 147 150 151 150 149 152
348 346 345 346 343 344 344 337 339 338 336 337 332 329 324 321 316 310 305 301 295 284 278 274 265 259 254 238 230 230 231 245 263 235 227 224 229 219 196 184 154 159 177 177 170 155 157 156 152 158 163 167 167 167 167 163 162 166 163 155 164 162 160 155 147 143 143 147 139 128 129 124 129 134 161 144 127 123 128 139 148 147 146 150 148
349 346 344 343 341 340 338 337 336 335 335 334 330 327 326 322 318 311 305 301 299 294 282 266 259 258 258 251 226 226 242 244 228 265 247 214 210 209 183 163 157 168 176 170 167 165 163 161 163 160 162 172 168 169 171 162 164 164 157 159 160 163 149 145 149 149 142 141 139 130 123 129 130 131 143 134 137 135 139 144 143 143 144 148 148
345 344 344 341 341 339 335 334 335 333 333 332 328 328 325 323 319 313 310 305 300 298 293 278 260 257 249 244 244 226 219 229 231 225 236 228 200 213 193 165 156 161 174 170 180 180 166 166 161 170 171 167 166 164 167 164 165 163 155 159 164 157 148 151 151 150 130 126 127 108 112 111 117 125 132 138 143 144 142 139 141 141 139 142 143
342 341 343 341 339 338 336 331 329 328 329 328 327 325 324 321 319 321 320 314 305 297 296 289 281 264 245 246 244 248 227 221 222 224 233 233 212 222 183 164 160 162 170 168 186 186 177 170 164 169 173 169 164 166 165 163 164 161 161 159 163 157 149 141 139 144 141 124 131 124 130 121 132 135 141 137 144 142 132 129 130 132 136 138 144
337 336 336 336 335 334 332 329 327 329 326 326 326 324 322 318 317 320 321 316 311 308 303 290 267 270 263 253 245 231 235 240 223 213 212 241 230 232 194 159 165 165 168 176 174 183 188 175 169 167 172 175 173 170 163 161 161 162 164 160 159 146 139 132 139 141 148 134 130 138 147 139 135 131 132 130 139 137 130 129 129 132 139 136 144
336 335 332 330 331 329 329 325 326 326 326 323 324 326 323 321 322 322 317 320 318 311 305 296 292 284 281 267 253 246 238 232 231 212 212 219 214 197 184 155 170 169 172 170 174 183 187 169 171 158 163 172 177 171 161 157 154 153 147 128 110 122 132 136 141 146 154 157 140 140 142 145 140 129 139 142 139 135 132 133 131 134 138 139 143
338 337 332 332 330 330 327 324 325 325 324 324 323 325 324 322 320 318 315 317 318 314 305 299 297 295 289 285 268 252 246 241 232 219 223 202 219 217 185 175 171 181 183 179 174 175 178 181 167 167 166 162 171 174 161 153 140 123 112 102 93 71 85 123 138 140 153 154 148 157 144 145 151 141 146 146 141 138 138 138 138 138 141 140 144
336 333 331 331 329 324 320 320 319 320 320 317 312 309 316 317 315 312 311 310 313 314 313 308 305 297 290 284 285 272 252 244 240 218 217 215 205 204 192 187 175 183 186 178 177 179 177 175 165 165 173 166 169 167 156 147 155 154 144 129 87 67 43 74 102 120 137 146 152 165 158 154 155 153 145 146 141 137 138 139 139 142 147 147 145
331 329 329 329 328 326 324 320 318 313 312 312 307 304 305 308 311 306 305 305 299 304 308 308 307 303 298 291 285 285 276 255 244 229 221 216 213 205 194 190 186 181 187 185 176 181 182 175 171 169 166 173 163 173 167 173 158 155 141 129 156 136 107 67 18 53 101 130 144 160 166 163 159 152 159 146 142 134 134 138 141 144 143 138 131
328 326 328 327 326 325 324 322 318 314 309 308 307 300 297 300 298 300 300 301 300 300 301 309 324 327 321 314 305 296 289 272 247 226 222 222 217 213 198 192 192 179 183 183 175 172 174 178 174 173 167 164 167 182 181 178 162 150 163 176 159 152 141 207 148 23 347 86 165 167 160 162 158 151 159 146 142 132 138 138 145 145 140 133 121
329 329 329 326 323 321 320 319 317 315 310 307 307 308 301 295 300 298 299 301 304 309 322 323 325 320 314 314 312 312 298 282 269 244 219 225 219 214 205 197 190 185 181 183 178 178 175 176 175 172 178 173 168 172 188 187 181 178 147 131 128 178 195 155 127 54 32 104 28 181 152 156 163 161 155 146 140 143 138 141 148 145 140 137 125
329 329 327 325 324 320 319 318 316 313 311 308 305 304 302 300 301 303 304 308 304 310 316 319 316 315 312 308 308 316 311 299 282 262 234 222 222 214 212 205 189 184 183 183 178 165 174 179 180 178 179 176 168 164 177 205 188 195 191 169 162 164 157 149 154 162 10 27 20 344 128 149 158 159 154 146 145 143 142 148 145 144 142 140 133
330 330 330 328 325 323 320 315 306 304 305 307 305 300 299 300 298 296 297 299 297 292 284 283 289 295 305 313 317 318 318 312 305 278 245 224 224 215 210 208 193 185 181 180 178 174 173 180 176 181 183 169 170 169 177 182 181 213 207 60 114 105 140 151 173 110 130 158 136 175 122 119 136 152 149 157 148 143 149 145 145 142 141 140 140
328 327 322 312 312 316 313 312 316 313 302 295 300 300 299 297 296 296 294 292 291 293 294 284 281 294 301 308 313 313 319 320 317 304 266 227 215 214 207 200 204 184 176 180 179 173 172 178 180 184 181 174 176 178 178 171 178 192 180 113 111 130 150 154 136 162 163 156 171 351 33 116 112 116 146 146 147 143 143 148 146 144 142 142 143
324 321 314 311 308 324 321 315 307 308 306 304 296 297 296 295 295 292 290 288 289 288 293 290 278 289 294 303 309 311 316 328 321 309 301 262 224 210 208 200 195 194 184 187 178 174 174 175 181 186 186 184 183 180 175 178 181 180 163 150 132 135 146 131 131 124 135 144 151 172 153 95 96 82 83 100 101 120 141 146 150 148 145 144 145
321 318 315 321 317 315 311 309 312 311 305 308 303 295 294 294 291 290 286 286 285 287 285 289 290 281 298 300 306 309 317 321 320 310 304 288 238 216 211 204 198 192 186 186 180 177 176 180 181 184 185 180 188 187 182 179 181 180 168 152 144 138 132 122 149 148 131 160 163 178 162 157 154 152 54 112 117 103 110 127 136 144 144 144 144
322 319 320 321 319 315 316 315 311 307 304 302 302 298 294 289 289 288 288 285 281 282 285 287 292 296 299 305 306 306 309 310 315 314 306 304 275 230 212 203 200 196 186 186 181 179 174 170 179 185 185 181 182 186 183 175 179 175 167 174 164 164 169 171 169 162 152 143 126 157 165 164 157 146 201 70 101 109 107 127 137 149 150 150 149